Weather History for Sturgeon Bay, WI

Change the Weather History Date:

Sunday, August 5, 2012

  Actual Average Record
Temperature  
Mean Temperature 65 °F -  
Max Temperature 73 °F 79 °F 95 °F (1955)
Min Temperature 57 °F 57 °F 43 °F (1927)
Growing Degree Days 15 (Base 50)    
Moisture  
Dew Point 53 °F    
Average Humidity 61    
Maximum Humidity 88    
Minimum Humidity 36    
Precipitation  
Precipitation 0.00 in - - ()
Sea Level Pressure  
Sea Level Pressure 30.00 in    
Wind  
Wind Speed 10 mph (WNW)    
Max Wind Speed 18 mph    
Max Gust Speed 26 mph    
Visibility 10 miles    
Events      
Averages and records for this station are not official NWS values.
T = Trace of Precipitation, MM = Missing Value Source: NWS Daily Summary

Daily Weather History Graph

Daily Weather History Graph

Search for Another Location

Airport:

Trip Planner

Search our weather history database for the weather conditions in past years. The results will help you decide how hot, cold, wet, or windy it might be!

Date:

Astronomy

Aug. 05, 2012 Rise Set
Actual Time 5:40 AM CDT 8:09 PM CDT
Civil Twilight 5:07 AM CDT 8:42 PM CDT
Nautical Twilight 4:26 AM CDT 9:23 PM CDT
Astronomical Twilight 3:39 AM CDT 10:10 PM CDT
Moon 9:33 PM CDT (8/5) 9:42 AM CDT (8/5)
Length of Visible Light 15h 35m
Length of Day
14h 29m
Waning Gibbous, 86% of the Moon is Illuminated
Aug 5
Waning Gibbous
Aug 9
Last Quarter
Aug 17
New
Aug 24
First Quarter
Aug 31
Full

Hourly Weather History & Observations

Time (CDT) Temp. Dew Point Humidity Pressure Visibility Wind Dir Wind Speed Gust Speed Precip Events Conditions
12:15 AM 69.8 °F 66.2 °F 88% 29.84 in 10.0 mi West 5.8 mph - N/A   Unknown
12:35 AM 69.8 °F 64.4 °F 83% 29.85 in 10.0 mi West 6.9 mph - N/A   Unknown
12:55 AM 68.0 °F 64.4 °F 88% 29.85 in 10.0 mi West 5.8 mph - N/A   Unknown
1:15 AM 68.0 °F 64.4 °F 88% 29.85 in 10.0 mi West 5.8 mph - N/A   Unknown
1:35 AM 69.8 °F 62.6 °F 78% 29.85 in 10.0 mi West 8.1 mph - N/A   Unknown
1:55 AM 68.0 °F 62.6 °F 83% 29.85 in 10.0 mi West 8.1 mph - N/A   Unknown
2:15 AM 68.0 °F 60.8 °F 78% 29.84 in 10.0 mi West 10.4 mph - N/A   Unknown
2:35 AM 68.0 °F 60.8 °F 78% 29.83 in 10.0 mi West 10.4 mph - N/A   Unknown
2:55 AM 68.0 °F 60.8 °F 78% 29.83 in 10.0 mi West 12.7 mph - N/A   Unknown
3:35 AM 68.0 °F 60.8 °F 78% 29.82 in 10.0 mi West 11.5 mph 17.3 mph N/A   Unknown
4:15 AM 66.2 °F 60.8 °F 83% 29.84 in 10.0 mi West 8.1 mph - N/A   Unknown
4:35 AM 66.2 °F 59.0 °F 78% 29.85 in 10.0 mi West 10.4 mph - N/A   Unknown
4:55 AM 66.2 °F 59.0 °F 78% 29.85 in 10.0 mi WNW 8.1 mph - N/A   Unknown
5:15 AM 66.2 °F 59.0 °F 78% 29.85 in 10.0 mi WNW 16.1 mph 20.7 mph N/A   Unknown
5:35 AM 64.4 °F 57.2 °F 77% 29.86 in 10.0 mi WNW 15.0 mph 18.4 mph N/A   Unknown
5:55 AM 64.4 °F 57.2 °F 77% 29.88 in 10.0 mi WNW 12.7 mph - N/A   Unknown
6:15 AM 64.4 °F 57.2 °F 77% 29.89 in 10.0 mi WNW 15.0 mph 18.4 mph N/A   Unknown
6:35 AM 64.4 °F 57.2 °F 77% 29.91 in 10.0 mi WNW 12.7 mph 18.4 mph N/A   Unknown
6:55 AM 64.4 °F 57.2 °F 77% 29.92 in 10.0 mi WNW 15.0 mph 20.7 mph N/A   Unknown
7:15 AM 64.4 °F 55.4 °F 73% 29.93 in 10.0 mi NW 18.4 mph 21.9 mph N/A   Unknown
7:35 AM 64.4 °F 55.4 °F 73% 29.94 in 10.0 mi NW 17.3 mph 21.9 mph N/A   Unknown
7:55 AM 64.4 °F 55.4 °F 73% 29.95 in 10.0 mi NW 15.0 mph 23.0 mph N/A   Unknown
8:15 AM 64.4 °F 53.6 °F 68% 29.96 in 10.0 mi NW 16.1 mph 26.5 mph N/A   Unknown
8:35 AM 64.4 °F 53.6 °F 68% 29.97 in 10.0 mi NW 17.3 mph 26.5 mph N/A   Unknown
8:55 AM 64.4 °F 51.8 °F 64% 29.97 in 10.0 mi WNW 18.4 mph 25.3 mph N/A   Unknown
9:15 AM 64.4 °F 50.0 °F 59% 29.98 in 10.0 mi NW 18.4 mph 26.5 mph N/A   Unknown
9:35 AM 66.2 °F 50.0 °F 56% 29.99 in 10.0 mi NW 13.8 mph 24.2 mph N/A   Unknown
9:55 AM 66.2 °F 50.0 °F 56% 30.00 in 10.0 mi NNW 17.3 mph 21.9 mph N/A   Unknown
10:15 AM 66.2 °F 51.8 °F 60% 30.00 in 10.0 mi NW 13.8 mph 19.6 mph N/A   Unknown
10:35 AM 66.2 °F 50.0 °F 56% 30.02 in 10.0 mi NW 12.7 mph 20.7 mph N/A   Unknown
10:55 AM 66.2 °F 51.8 °F 60% 30.02 in 10.0 mi NW 13.8 mph - N/A   Unknown
11:15 AM 66.2 °F 51.8 °F 60% 30.03 in 10.0 mi NW 13.8 mph 17.3 mph N/A   Unknown
11:35 AM 68.0 °F 51.8 °F 56% 30.04 in 10.0 mi NW 16.1 mph 20.7 mph N/A   Unknown
11:55 AM 68.0 °F 50.0 °F 52% 30.04 in 10.0 mi NW 15.0 mph 20.7 mph N/A   Unknown
12:15 PM 69.8 °F 50.0 °F 49% 30.05 in 10.0 mi WNW 15.0 mph 20.7 mph N/A   Unknown
12:35 PM 69.8 °F 51.8 °F 53% 30.04 in 10.0 mi WNW 13.8 mph 21.9 mph N/A   Unknown
12:55 PM 69.8 °F 51.8 °F 53% 30.04 in 10.0 mi WNW 16.1 mph 21.9 mph N/A   Unknown
1:15 PM 71.6 °F 48.2 °F 43% 30.04 in 10.0 mi WNW 12.7 mph 23.0 mph N/A   Unknown
1:35 PM 71.6 °F 51.8 °F 50% 30.04 in 10.0 mi WNW 13.8 mph 24.2 mph N/A   Unknown
1:55 PM 71.6 °F 50.0 °F 46% 30.04 in 10.0 mi West 13.8 mph 23.0 mph N/A   Unknown
2:15 PM 71.6 °F 50.0 °F 46% 30.04 in 10.0 mi West 13.8 mph 19.6 mph N/A   Unknown
2:35 PM 73.4 °F 48.2 °F 41% 30.05 in 10.0 mi WNW 17.3 mph - N/A   Unknown
2:55 PM 73.4 °F 48.2 °F 41% 30.05 in 10.0 mi WNW 15.0 mph - N/A   Unknown
3:15 PM 73.4 °F 48.2 °F 41% 30.06 in 10.0 mi West 12.7 mph 20.7 mph N/A   Unknown
3:35 PM 73.4 °F 46.4 °F 38% 30.06 in 10.0 mi WNW 13.8 mph 18.4 mph N/A   Unknown
3:55 PM 73.4 °F 46.4 °F 38% 30.05 in 10.0 mi WNW 16.1 mph 19.6 mph N/A   Unknown
4:15 PM 73.4 °F 46.4 °F 38% 30.06 in 10.0 mi WNW 13.8 mph 18.4 mph N/A   Unknown
4:35 PM 73.4 °F 46.4 °F 38% 30.06 in 10.0 mi West 15.0 mph 20.7 mph N/A   Unknown
4:55 PM 73.4 °F 46.4 °F 38% 30.06 in 10.0 mi WNW 13.8 mph 21.9 mph N/A   Unknown
5:15 PM 73.4 °F 44.6 °F 36% 30.06 in 10.0 mi NW 13.8 mph 20.7 mph N/A   Unknown
5:35 PM 73.4 °F 46.4 °F 38% 30.06 in 10.0 mi WNW 11.5 mph 18.4 mph N/A   Unknown
5:55 PM 73.4 °F 44.6 °F 36% 30.06 in 10.0 mi WNW 10.4 mph 18.4 mph N/A   Unknown
6:15 PM 73.4 °F 44.6 °F 36% 30.07 in 10.0 mi WNW 11.5 mph - N/A   Unknown
6:35 PM 73.4 °F 46.4 °F 38% 30.07 in 10.0 mi WNW 10.4 mph 17.3 mph N/A   Unknown
6:55 PM 73.4 °F 46.4 °F 38% 30.07 in 10.0 mi WNW 9.2 mph - N/A   Unknown
7:15 PM 71.6 °F 46.4 °F 41% 30.07 in 10.0 mi WNW 6.9 mph - N/A   Unknown
7:35 PM 71.6 °F 46.4 °F 41% 30.07 in 10.0 mi WNW 5.8 mph - N/A   Unknown
7:55 PM 71.6 °F 46.4 °F 41% 30.07 in 10.0 mi West 3.5 mph - N/A   Unknown
8:15 PM 69.8 °F 46.4 °F 43% 30.08 in 10.0 mi Calm Calm - N/A   Unknown
8:35 PM 64.4 °F 50.0 °F 59% 30.09 in 10.0 mi SSW 3.5 mph - N/A   Unknown
8:55 PM 62.6 °F 50.0 °F 63% 30.09 in 10.0 mi South 4.6 mph - N/A   Unknown
9:15 PM 60.8 °F 51.8 °F 72% 30.09 in 10.0 mi South 3.5 mph - N/A   Unknown
9:35 PM 60.8 °F 51.8 °F 72% 30.10 in 10.0 mi South 4.6 mph - N/A   Unknown
9:55 PM 60.8 °F 51.8 °F 72% 30.10 in 10.0 mi South 5.8 mph - N/A   Unknown
10:15 PM 60.8 °F 50.0 °F 68% 30.11 in 10.0 mi South 4.6 mph - N/A   Unknown
10:35 PM 60.8 °F 50.0 °F 68% 30.11 in 10.0 mi Calm Calm - N/A   Unknown
10:55 PM 59.0 °F 50.0 °F 72% 30.11 in 10.0 mi South 3.5 mph - N/A   Unknown
11:15 PM 59.0 °F 51.8 °F 77% 30.11 in 10.0 mi South 3.5 mph - N/A   Unknown
11:35 PM 57.2 °F 50.0 °F 77% 30.12 in 10.0 mi Calm Calm - N/A   Unknown
11:55 PM 59.0 °F 50.0 °F 72% 30.12 in 10.0 mi SSW 4.6 mph - N/A   Unknown